EW6614 Weather Reports


Display with metric or nautical units.
time (UTC)temp
F
wind
direction
speed
MPH
gust
MPH
rain 1hr
in
rain 24hr
in
rain mn
in
humidity
%
barometer
mb
20260903064603 76 0 0.0 4.0 0.00 0.85 0.00 53 1013.6
20260903064540 76 360 0.0 5.0 0.00 0.85 0.00 64 1013.4
20260903063103 76 0 0.0 0.0 0.00 0.85 0.00 52 1013.7
20260903063043 76 360 0.0 0.0 0.00 0.85 0.00 64 1013.4
20260903061604 76 0 0.0 0.0 0.00 0.85 0.00 52 1013.6
20260903061543 76 360 0.0 1.0 0.00 0.85 0.00 63 1013.4
20260903060108 76 0 0.0 0.0 0.00 0.85 0.00 52 1013.7
20260903060051 76 360 0.0 0.0 0.00 0.85 0.00 63 1013.4
20260903054604 76 0 0.0 1.0 0.00 0.85 0.00 52 1013.9
20260903054537 76 360 0.0 1.0 0.00 0.85 0.00 63 1013.7
20260903053107 76 360 0.0 4.0 0.00 0.85 0.00 52 1013.9
20260903053043 76 360 0.0 4.0 0.00 0.85 0.00 64 1013.7
20260903051606 76 0 0.0 3.0 0.00 0.85 0.00 52 1013.8
20260903051536 76 360 0.0 1.0 0.00 0.85 0.00 63 1013.6
20260903050106 76 0 1.0 5.0 0.01 0.85 0.00 52 1013.7
20260903050037 76 360 1.0 5.0 0.01 0.85 0.00 63 1013.5
20260903044604 75 0 0.0 3.0 0.01 0.85 0.85 52 1013.7
20260903044533 75 360 0.0 2.0 0.01 0.85 0.52 63 1013.4
20260903043101 75 0 0.0 2.0 0.01 0.85 0.85 51 1013.7
20260903043032 75 360 0.0 2.0 0.01 0.85 0.52 63 1013.5
20260903041602 75 0 0.0 2.0 0.02 0.85 0.85 51 1013.8
20260903041535 75 360 0.0 1.0 0.02 0.85 0.52 63 1013.6
20260903040107 75 0 0.0 3.0 0.01 0.84 0.84 51 1013.8
20260903040031 75 360 0.0 3.0 0.01 0.84 0.51 62 1013.6
20260903034602 75 0 0.0 0.0 0.02 0.84 0.84 51 1014.0
20260903034531 75 360 0.0 0.0 0.02 0.84 0.51 62 1013.9
20260903033110 75 0 0.0 0.0 0.04 0.84 0.84 51 1014.1
20260903033031 75 360 0.0 0.0 0.04 0.84 0.51 63 1013.9
20260903031604 74 0 0.0 0.0 0.05 0.83 0.83 51 1014.3
20260903031539 74 360 0.0 0.0 0.05 0.83 0.50 63 1014.2
20260903030106 74 0 0.0 0.0 0.06 0.83 0.83 51 1014.4
20260903030030 74 360 0.0 0.0 0.06 0.83 0.50 63 1014.2
20260903024602 74 0 0.0 0.0 0.06 0.82 0.82 51 1014.4
20260903024527 74 360 0.0 0.0 0.06 0.82 0.49 63 1014.2
20260903023104 74 0 0.0 1.0 0.06 0.80 0.80 51 1014.4
20260903023030 74 360 0.0 1.0 0.06 0.80 0.47 63 1014.2
20260903021604 73 0 0.0 1.0 0.07 0.78 0.78 52 1014.1
20260903021537 73 360 0.0 1.0 0.07 0.78 0.45 63 1013.9
20260903020104 73 0 0.0 3.0 0.09 0.77 0.77 52 1013.8
20260903020027 73 360 0.0 3.0 0.09 0.77 0.44 63 1013.5
20260903014612 73 360 0.0 3.0 0.10 0.76 0.76 52 1013.8
20260903014522 73 360 1.0 3.0 0.10 0.76 0.43 64 1013.5
20260903013100 73 360 1.0 3.0 0.11 0.74 0.74 53 1013.8
20260903013021 73 360 1.0 3.0 0.11 0.74 0.41 64 1013.5
20260903011602 73 0 0.0 0.0 0.11 0.71 0.71 53 1013.6
20260903011525 73 360 0.0 0.0 0.11 0.71 0.38 65 1013.3
20260903010105 74 0 0.0 3.0 0.10 0.68 0.68 54 1013.6
20260903010025 74 360 0.0 3.0 0.10 0.68 0.35 65 1013.3
20260903004601 74 0 1.0 3.0 0.14 0.66 0.66 54 1013.8
20260903004522 74 360 0.0 3.0 0.14 0.66 0.33 66 1013.5
20260903003100 74 360 0.0 3.0 0.14 0.63 0.63 55 1013.8
20260903003018 74 360 0.0 3.0 0.14 0.63 0.30 66 1013.4
20260903001600 74 0 0.0 2.0 0.11 0.60 0.60 55 1013.9
20260903001517 74 360 0.0 2.0 0.11 0.60 0.27 67 1013.5
20260903000103 74 0 0.0 3.0 0.21 0.58 0.58 56 1013.9
20260903000034 74 360 0.0 3.0 0.21 0.56 0.24 67 1013.7
20260902234601 74 360 1.0 3.0 0.19 0.52 0.52 57 1014.0
20260902234515 74 360 0.0 3.0 0.19 0.52 0.19 68 1013.7
20260902233104 75 360 3.0 8.0 0.16 0.49 0.49 58 1014.0
20260902233013 75 360 2.0 8.0 0.16 0.49 0.16 69 1013.5
20260902231603 76 360 3.0 14.0 0.16 0.49 0.49 57 1013.9
20260902231508 76 360 4.0 14.0 0.15 0.48 0.15 69 1013.6
20260902230111 80 360 1.0 4.0 0.03 0.36 0.36 56 1013.5
20260902230004 80 360 2.0 4.0 0.02 0.35 0.02 68 1012.8
20260902224606 80 360 0.0 2.0 0.00 0.33 0.33 56 1013.4
20260902224502 81 360 0.0 2.0 0.00 0.33 0.00 67 1013.0
20260902223118 81 165 1.0 6.0 0.00 0.33 0.33 55 1013.1
20260902223109 81 165 0.0 6.0 0.00 0.33 0.00 67 1012.7
20260902221600 81 128 1.0 7.0 0.00 0.33 0.33 55 1012.8
20260902221557 81 128 2.0 6.0 0.00 0.33 0.00 67 1012.5
20260902220104 81 140 2.0 3.0 0.00 0.33 0.33 55 1013.0
20260902214617 80 146 2.0 9.0 0.00 0.33 0.33 55 1013.3
20260902214600 80 146 1.0 7.0 0.00 0.33 0.00 67 1012.9
20260902213111 80 144 3.0 9.0 0.00 0.33 0.33 55 1013.4
20260902213042 80 137 3.0 9.0 0.00 0.33 0.00 67 1013.2
20260902211608 80 150 5.0 13.0 0.00 0.33 0.33 55 1013.2
20260902211537 80 175 4.0 11.0 0.00 0.33 0.00 67 1012.9
20260902210107 0 0.0 0.0 0.00 0.33 0.33 1013.1
20260902204601 80 96 6.0 15.0 0.00 0.33 0.33 55 1013.5
20260902204553 80 96 7.0 16.0 0.00 0.33 0.33 66 1013.1
20260902203110 80 134 5.0 14.0 0.00 0.33 0.33 55 1013.8
20260902203052 80 134 5.0 12.0 0.00 0.33 0.33 66 1013.5
20260902201603 80 137 6.0 11.0 0.00 0.33 0.33 54 1014.0
20260902201553 80 122 5.0 11.0 0.00 0.33 0.33 66 1013.6
20260902200100 79 91 4.0 9.0 0.00 0.33 0.33 53 1014.1
20260902200051 79 85 4.0 9.0 0.00 0.33 0.33 64 1013.6
20260902194558 79 126 3.0 9.0 0.00 0.33 0.33 52 1014.0
20260902194551 79 126 4.0 8.0 0.00 0.33 0.33 64 1013.6
20260902193126 78 360 3.0 10.0 0.00 0.33 0.33 51 1014.1
20260902193051 78 360 4.0 10.0 0.00 0.33 0.33 62 1013.7
20260902191603 78 360 3.0 10.0 0.00 0.33 0.33 51 1014.2
20260902191550 78 360 4.0 10.0 0.00 0.33 0.33 62 1013.9
20260902190136 78 111 4.0 8.0 0.00 0.33 0.33 50 1014.1
20260902190048 78 111 4.0 9.0 0.00 0.33 0.33 61 1013.8
20260902184620 77 178 3.0 10.0 0.00 0.33 0.33 50 1014.3
20260902184548 77 360 2.0 10.0 0.00 0.33 0.33 61 1014.0
20260902183118 77 159 3.0 9.0 0.00 0.33 0.33 50 1014.4
20260902183057 77 159 3.0 9.0 0.00 0.33 0.33 62 1014.2
20260902181558 77 146 2.0 8.0 0.00 0.33 0.33 51 1014.5
20260902181548 77 146 3.0 8.0 0.00 0.33 0.33 62 1014.2
20260902180105 76 360 2.0 8.0 0.01 0.33 0.33 51 1014.6
20260902180046 76 360 3.0 8.0 0.01 0.33 0.33 62 1014.4
20260902174607 76 360 4.0 12.0 0.01 0.33 0.33 51 1014.9
20260902174552 76 360 4.0 12.0 0.01 0.33 0.33 62 1014.6
20260902173107 76 360 3.0 5.0 0.01 0.33 0.33 63 1014.8
20260902173104 76 360 3.0 5.0 0.01 0.33 0.33 51 1015.1
20260902171607 75 360 3.0 9.0 0.01 0.33 0.33 51 1015.3
20260902171545 75 360 2.0 9.0 0.01 0.33 0.33 63 1015.1
20260902170043 75 360 3.0 10.0 0.00 0.32 0.32 62 1015.3
20260902164607 75 360 3.0 8.0 0.01 0.32 0.32 51 1015.4
20260902164544 75 360 3.0 9.0 0.01 0.32 0.32 62 1015.1
20260902163104 75 360 4.0 13.0 0.01 0.32 0.32 51 1015.4
20260902163042 75 360 6.0 10.0 0.01 0.32 0.32 62 1015.2
20260902161608 75 360 6.0 14.0 0.01 0.32 0.32 51 1015.4
20260902161541 75 360 7.0 14.0 0.01 0.32 0.32 63 1015.2
20260902160106 75 360 4.0 12.0 0.02 0.32 0.32 51 1015.5
20260902160053 75 360 5.0 12.0 0.02 0.32 0.32 63 1015.3
20260902154603 75 360 4.0 11.0 0.02 0.31 0.31 51 1015.3
20260902154544 75 360 3.0 11.0 0.02 0.31 0.31 63 1015.2
20260902153108 75 360 3.0 10.0 0.03 0.31 0.31 52 1015.1
20260902153041 75 360 4.0 10.0 0.03 0.31 0.31 63 1014.8
20260902151606 75 360 4.0 9.0 0.04 0.31 0.31 52 1014.8
20260902151532 75 360 4.0 9.0 0.04 0.31 0.31 63 1014.4
20260902150105 75 360 3.0 8.0 0.04 0.30 0.30 52 1014.6
20260902150032 75 360 3.0 8.0 0.04 0.30 0.30 64 1014.4
20260902144604 75 360 3.0 5.0 0.03 0.29 0.29 53 1014.8
20260902144531 75 360 3.0 6.0 0.03 0.28 0.28 64 1014.4
20260902143100 75 360 3.0 8.0 0.02 0.28 0.28 53 1014.5
20260902143030 75 360 3.0 8.0 0.02 0.28 0.28 65 1014.1
20260902141600 75 360 2.0 6.0 0.02 0.27 0.27 54 1014.9
20260902141529 75 360 2.0 6.0 0.02 0.27 0.27 66 1014.5
20260902140106 75 360 2.0 8.0 0.02 0.26 0.26 55 1014.8
20260902140028 75 360 2.0 8.0 0.02 0.26 0.26 66 1014.4
20260902134610 75 360 3.0 11.0 0.06 0.26 0.26 55 1014.6
20260902134527 75 360 4.0 11.0 0.06 0.26 0.26 67 1014.3
20260902133109 75 360 4.0 10.0 0.08 0.26 0.26 56 1014.7
20260902133032 75 360 4.0 9.0 0.07 0.25 0.25 67 1014.2
20260902131601 75 360 2.0 6.0 0.25 0.25 0.25 57 1014.2
20260902131522 75 360 2.0 6.0 0.25 0.25 0.25 68 1013.9
20260902130105 76 360 3.0 9.0 0.24 0.24 0.24 57 1014.2
20260902130020 76 360 3.0 9.0 0.24 0.24 0.24 69 1013.8
20260902124605 76 360 6.0 12.0 0.20 0.20 0.20 58 1014.2
20260902124522 76 360 6.0 12.0 0.20 0.20 0.20 69 1013.9
20260902123120 77 360 3.0 11.0 0.18 0.18 0.18 59 1014.1
20260902123015 78 360 3.0 11.0 0.18 0.18 0.18 70 1013.7
20260902121603 80 360 3.0 9.0 0.00 0.00 0.00 58 1013.8
20260902121511 80 360 3.0 9.0 0.00 0.00 0.00 70 1013.3
20260902120107 80 360 5.0 13.0 0.00 0.00 0.00 57 1013.6
20260902120017 80 360 6.0 12.0 0.00 0.00 0.00 69 1013.1
20260902114607 80 360 7.0 16.0 0.00 0.00 0.00 57 1013.8
20260902114510 80 360 8.0 16.0 0.00 0.00 0.00 69 1013.4
20260902113116 80 360 3.0 10.0 0.00 0.00 0.00 58 1013.3
20260902113007 80 360 4.0 10.0 0.00 0.00 0.00 69 1012.9
20260902111559 80 360 4.0 9.0 0.00 0.00 0.00 58 1013.2
20260902111507 80 360 5.0 9.0 0.00 0.00 0.00 69 1012.8
20260902110105 80 360 3.0 10.0 0.00 0.00 0.00 58 1013.2
20260902110007 80 360 3.0 10.0 0.00 0.00 0.00 69 1012.8
20260902104603 80 360 5.0 13.0 0.00 0.00 0.00 58 1013.4
20260902104515 79 360 4.0 13.0 0.00 0.00 0.00 69 1013.0
20260902103106 79 360 4.0 12.0 0.00 0.00 0.00 58 1013.4
20260902103004 79 360 4.0 13.0 0.00 0.00 0.00 70 1013.0
20260902101559 79 360 3.0 8.0 0.00 0.00 0.00 58 1013.2
20260902101503 79 360 3.0 8.0 0.00 0.00 0.00 70 1012.8
20260902100119 79 360 3.0 8.0 0.00 0.00 0.00 59 1013.3
20260902100003 79 360 3.0 8.0 0.00 0.00 0.00 70 1013.0
20260902094603 79 360 3.0 8.0 0.00 0.00 0.00 59 1013.4
20260902094502 79 360 3.0 8.0 0.00 0.00 0.00 70 1013.0
20260902093103 79 360 2.0 8.0 0.00 0.00 0.00 59 1013.5
20260902093001 79 360 2.0 6.0 0.00 0.00 0.00 70 1013.2
20260902091613 79 360 2.0 6.0 0.00 0.00 0.00 71 1013.1
20260902091611 79 360 2.0 6.0 0.00 0.00 0.00 59 1013.4
20260902090108 79 360 2.0 5.0 0.00 0.00 0.00 59 1013.6
20260902090059 79 360 3.0 5.0 0.00 0.00 0.00 71 1013.2
20260902084602 79 360 1.0 6.0 0.00 0.00 0.00 59 1013.5
20260902084559 79 360 2.0 6.0 0.00 0.00 0.00 71 1013.0
20260902083100 79 360 3.0 8.0 0.00 0.00 0.00 59 1013.4
20260902083059 79 360 3.0 8.0 0.00 0.00 0.00 71 1012.9
20260902081601 79 360 1.0 8.0 0.00 0.00 0.00 60 1013.7
20260902081556 79 360 0.0 8.0 0.00 0.00 0.00 71 1013.3
20260902080114 79 360 2.0 5.0 0.00 0.00 0.00 60 1013.7
20260902080056 79 360 2.0 5.0 0.00 0.00 0.00 72 1013.4
20260902074626 79 360 1.0 3.0 0.00 0.00 0.00 61 1013.7
20260902074555 79 360 1.0 3.0 0.00 0.00 0.00 72 1013.3
20260902073111 79 360 3.0 8.0 0.00 0.00 0.00 61 1013.6
20260902073057 79 360 3.0 6.0 0.00 0.00 0.00 73 1013.3
20260902071628 79 360 1.0 5.0 0.00 0.00 0.00 62 1013.7
20260902071553 79 360 1.0 5.0 0.00 0.00 0.00 73 1013.4
20260902070053 79 360 3.0 9.0 0.00 0.00 0.00 73 1013.5